Maxwell AFB, AL

9:50 PM CDT on July 27, 2017 (GMT -0500)
Maxwell Air Force Base

Weather History for KMXF - January, 2013

Change the Weather History Date:

Tuesday, January 15, 2013

  Actual Average Record
Temperature  
Mean Temperature 54 °F -  
Max Temperature 59 °F 56 °F 76 °F (2017)
Min Temperature 48 °F 36 °F 22 °F (2011)
Degree Days  
Heating Degree Days 12    
Growing Degree Days 4 (Base 50)    
Moisture  
Dew Point 54 °F    
Average Humidity 98    
Maximum Humidity 100    
Minimum Humidity 93    
Precipitation  
Precipitation 0.80 in - - ()
Sea Level Pressure  
Sea Level Pressure 30.02 in    
Wind  
Wind Speed 2 mph (WNW)    
Max Wind Speed 7 mph    
Max Gust Speed -    
Visibility 4 miles    
Events Rain    
Averages and records for this station are not official NWS values.
T = Trace of Precipitation, MM = Missing Value Source: NWS Daily Summary

Daily Weather History Graph

Daily Weather History Graph

Search for Another Location

Airport or City:

Trip Planner

Search our weather history database for the weather conditions in past years. The results will help you decide how hot, cold, wet, or windy it might be!

Date:

Astronomy

Jan. 15, 2013 Rise Set
Actual Time 6:47 AM CST 5:03 PM CST
Civil Twilight 6:20 AM CST 5:29 PM CST
Nautical Twilight 5:50 AM CST 5:59 PM CST
Astronomical Twilight 5:20 AM CST 6:29 PM CST
Moon 9:09 AM CST (1/15) 9:32 PM CST (1/15)
Length of Visible Light 11h 09m
Length of Day
10h 16m
Waxing Crescent, 19% of the Moon is Illuminated
Jan 15
Waxing Crescent
Jan 18
First Quarter
Jan 26
Full
Feb 3
Last Quarter
Feb 10
New

Hourly Weather History & Observations

Time (CST) Temp. Dew Point Humidity Pressure Visibility Wind Dir Wind Speed Gust Speed Precip Events Conditions
12:00 AM 48.2 °F 46.4 °F 93% 30.11 in 10.0 mi Calm Calm - N/A   Overcast
12:17 AM 48.2 °F 46.4 °F 93% 30.10 in 10.0 mi Calm Calm - N/A   Overcast
12:25 AM 48.2 °F 46.4 °F 93% 30.09 in 10.0 mi ENE 3.5 mph - N/A   Overcast
12:50 AM 50.0 °F 48.2 °F 94% 30.09 in 10.0 mi Calm Calm - N/A   Overcast
12:55 AM 49.3 °F 47.8 °F 95% 30.09 in 10.0 mi Calm Calm - N/A   Overcast
1:55 AM 50.4 °F 49.3 °F 96% 30.07 in 9.0 mi Calm Calm - N/A   Overcast
1:57 AM 50.0 °F 50.0 °F 100% 30.07 in 9.0 mi Calm Calm - N/A   Overcast
2:29 AM 50.0 °F 48.2 °F 94% 30.08 in 2.5 mi WNW 4.6 mph - N/A   Overcast
2:34 AM 50.0 °F 48.2 °F 94% 30.07 in 2.0 mi Variable 3.5 mph - N/A   Overcast
2:36 AM 50.0 °F 48.2 °F 94% 30.07 in 2.0 mi Calm Calm - N/A   Overcast
2:40 AM 50.0 °F 48.2 °F 94% 30.07 in 2.0 mi WNW 3.5 mph - N/A   Overcast
2:42 AM 50.0 °F 48.2 °F 94% 30.07 in 1.8 mi Calm Calm - N/A   Overcast
2:53 AM 50.0 °F 48.2 °F 94% 30.08 in 1.5 mi WNW 4.6 mph - N/A   Overcast
2:55 AM 49.5 °F 48.9 °F 98% 30.08 in 1.5 mi WNW 4.6 mph - N/A   Overcast
2:58 AM 50.0 °F 48.2 °F 94% 30.08 in 1.5 mi WNW 4.6 mph - N/A   Overcast
3:01 AM 50.0 °F 48.2 °F 94% 30.08 in 1.5 mi WNW 4.6 mph - N/A   Overcast
3:10 AM 50.0 °F 48.2 °F 94% 30.08 in 1.5 mi WNW 5.8 mph - N/A   Overcast
3:14 AM 50.0 °F 48.2 °F 94% 30.08 in 1.5 mi WNW 5.8 mph - N/A   Overcast
3:18 AM 50.0 °F 50.0 °F 100% 30.08 in 1.8 mi WNW 5.8 mph - N/A   Overcast
3:25 AM 50.0 °F 50.0 °F 100% 30.08 in 2.0 mi NW 4.6 mph - N/A   Overcast
3:26 AM 50.0 °F 50.0 °F 100% 30.08 in 2.0 mi NW 5.8 mph - N/A   Overcast
3:29 AM 50.0 °F 50.0 °F 100% 30.07 in 2.0 mi NW 6.9 mph - N/A   Overcast
3:33 AM 50.0 °F 50.0 °F 100% 30.07 in 3.0 mi NW 5.8 mph - N/A   Overcast
3:40 AM 50.0 °F 50.0 °F 100% 30.07 in 4.0 mi NNW 4.6 mph - N/A   Overcast
3:55 AM 50.4 °F 50.0 °F 99% 30.07 in 5.0 mi NNW 4.6 mph - N/A   Overcast
4:01 AM 50.0 °F 50.0 °F 100% 30.07 in 5.0 mi North 4.6 mph - N/A   Overcast
4:55 AM 50.5 °F 50.2 °F 99% 30.06 in 6.0 mi NE 6.9 mph - N/A   Overcast
5:14 AM 50.0 °F 50.0 °F 100% 30.06 in 10.0 mi North 5.8 mph - N/A   Light Drizzle
5:27 AM 50.0 °F 50.0 °F 100% 30.06 in 10.0 mi North 5.8 mph - N/A   Overcast
5:29 AM 50.0 °F 50.0 °F 100% 30.06 in 10.0 mi North 6.9 mph - N/A   Overcast
5:30 AM 50.0 °F 50.0 °F 100% 30.06 in 9.0 mi North 5.8 mph - N/A Rain Light Rain
5:51 AM 50.0 °F 50.0 °F 100% 30.07 in 10.0 mi North 5.8 mph - N/A   Overcast
5:55 AM 50.0 °F 49.6 °F 99% 30.07 in 10.0 mi North 4.6 mph - 0.01 in   Overcast
5:57 AM 50.0 °F 50.0 °F 100% 30.07 in 10.0 mi North 4.6 mph - N/A   Overcast
6:14 AM 50.0 °F 50.0 °F 100% 30.07 in 9.0 mi NNE 4.6 mph - N/A   Light Drizzle
6:46 AM 50.0 °F 50.0 °F 100% 30.08 in 5.0 mi Calm Calm - N/A Rain Light Rain
6:54 AM 50.0 °F 50.0 °F 100% 30.07 in 4.0 mi East 3.5 mph - N/A Rain Light Rain
6:55 AM 50.5 °F 50.2 °F 99% 30.07 in 4.0 mi East 3.5 mph - 0.02 in Rain Light Rain
7:34 AM 51.8 °F 50.0 °F 94% 30.09 in 2.5 mi Calm Calm - N/A Rain Light Rain
7:35 AM 51.8 °F 50.0 °F 94% 30.09 in 2.5 mi Calm Calm - N/A Rain Light Rain
7:44 AM 51.8 °F 50.0 °F 94% 30.08 in 2.5 mi Calm Calm - N/A Rain Light Rain
7:47 AM 51.8 °F 50.0 °F 94% 30.08 in 3.0 mi Calm Calm - N/A Rain Light Rain
7:55 AM 51.1 °F 50.9 °F 99% 30.08 in 3.0 mi Calm Calm - 0.04 in Rain Light Rain
7:57 AM 51.8 °F 51.8 °F 100% 30.08 in 2.5 mi WNW 3.5 mph - N/A Rain Light Rain
8:08 AM 51.8 °F 51.8 °F 100% 30.08 in 0.8 mi NW 3.5 mph - N/A Rain Light Rain
8:09 AM 51.8 °F 51.8 °F 100% 30.08 in 2.0 mi NW 3.5 mph - N/A Rain Light Rain
8:16 AM 51.8 °F 51.8 °F 100% 30.09 in 0.8 mi West 3.5 mph - N/A Rain Light Rain
8:36 AM 51.8 °F 51.8 °F 100% 30.08 in 3.0 mi Calm Calm - N/A   Overcast
8:48 AM 51.8 °F 51.8 °F 100% 30.08 in 1.5 mi West 1.2 mph - N/A   Overcast
8:55 AM 51.8 °F 51.6 °F 99% 30.09 in 1.5 mi West 3.5 mph - 0.03 in Rain Light Rain
9:55 AM 52.2 °F 51.8 °F 99% 30.07 in 1.5 mi Calm Calm - 0.00 in   Overcast
10:55 AM 52.7 °F 52.2 °F 98% 30.05 in 2.0 mi West 3.5 mph - 0.01 in   Overcast
11:55 AM 53.8 °F 53.1 °F 97% 30.01 in 2.0 mi Calm Calm - N/A   Overcast
12:27 PM 55.4 °F 53.6 °F 94% 30.01 in 1.5 mi WNW 3.5 mph - N/A   Overcast
12:55 PM 54.7 °F 54.1 °F 98% 30.01 in 1.5 mi Calm Calm - N/A   Overcast
1:51 PM 57.2 °F 57.2 °F 100% 29.99 in 2.0 mi Calm Calm - N/A   Overcast
1:55 PM 57.4 °F 56.7 °F 97% 29.99 in 2.0 mi Calm Calm - N/A   Overcast
2:55 PM 59.0 °F 57.0 °F 93% 29.99 in 2.0 mi WNW 5.8 mph - N/A   Overcast
3:08 PM 59.0 °F 57.2 °F 94% 29.99 in 2.0 mi NW 3.5 mph - N/A   Overcast
3:55 PM 59.0 °F 57.6 °F 95% 30.00 in 3.0 mi Variable 3.5 mph - N/A   Overcast
4:13 PM 59.0 °F 57.2 °F 94% 30.00 in 5.0 mi Variable 2.3 mph - N/A   Overcast
4:18 PM 59.0 °F 57.2 °F 94% 30.00 in 5.0 mi Calm Calm - N/A   Overcast
4:55 PM 59.4 °F 57.9 °F 95% 30.00 in 5.0 mi Calm Calm - N/A   Overcast
5:08 PM 59.0 °F 57.2 °F 94% 30.00 in 5.0 mi South 3.5 mph - N/A   Overcast
5:55 PM 58.3 °F 57.6 °F 97% 30.00 in 3.0 mi WNW 3.5 mph - N/A   Overcast
6:55 PM 58.1 °F 57.6 °F 98% 29.99 in 2.0 mi Calm Calm - N/A   Overcast
7:05 PM 57.2 °F 57.2 °F 100% 29.99 in 1.8 mi West 4.6 mph - N/A   Overcast
7:09 PM 57.2 °F 57.2 °F 100% 29.99 in 0.8 mi Calm Calm - N/A   Mist
7:55 PM 57.4 °F 57.2 °F 99% 30.00 in 1.0 mi WNW 3.5 mph - N/A   Overcast
7:59 PM 57.2 °F 57.2 °F 100% 29.99 in 8.0 mi NW 3.5 mph - N/A   Overcast
8:08 PM 57.2 °F 57.2 °F 100% 29.98 in 1.0 mi SE 2.3 mph - N/A   Overcast
8:55 PM 57.0 °F 56.7 °F 99% 29.98 in 1.0 mi Calm Calm - N/A   Overcast
9:38 PM 57.2 °F 57.2 °F 100% 29.97 in 1.0 mi Calm Calm - N/A   Overcast
9:55 PM 57.0 °F 56.7 °F 99% 29.96 in 1.0 mi SSE 3.5 mph - N/A   Overcast
9:57 PM 57.2 °F 57.2 °F 100% 29.96 in 7.0 mi SSE 3.5 mph - N/A   Overcast
10:09 PM 57.2 °F 57.2 °F 100% 29.96 in 7.0 mi SSE 3.5 mph - N/A Rain Light Rain
10:15 PM 57.2 °F 57.2 °F 100% 29.96 in 6.0 mi Calm Calm - N/A Rain Light Rain
10:18 PM 57.2 °F 57.2 °F 100% 29.96 in 5.0 mi Calm Calm - N/A Rain Light Rain
10:24 PM 57.2 °F 57.2 °F 100% 29.96 in 2.5 mi Calm Calm - N/A Rain Heavy Rain
10:28 PM 57.2 °F 57.2 °F 100% 29.96 in 1.8 mi Calm Calm - N/A Rain Heavy Rain
10:29 PM 57.2 °F 57.2 °F 100% 29.96 in 1.5 mi Calm Calm - N/A Rain Heavy Rain
10:31 PM 57.2 °F 57.2 °F 100% 29.96 in 1.5 mi Calm Calm - N/A Rain Heavy Rain
10:32 PM 57.2 °F 57.2 °F 100% 29.96 in 1.2 mi SW 3.5 mph - N/A Rain Heavy Rain
10:34 PM 57.2 °F 57.2 °F 100% 29.96 in 1.2 mi West 4.6 mph - N/A Rain Heavy Rain
10:35 PM 57.2 °F 57.2 °F 100% 29.96 in 1.0 mi West 5.8 mph - N/A Rain Heavy Rain
10:36 PM 57.2 °F 57.2 °F 100% 29.96 in 1.0 mi WNW 5.8 mph - N/A Rain Heavy Rain
10:39 PM 57.2 °F 57.2 °F 100% 29.96 in 1.0 mi West 4.6 mph - N/A Rain Heavy Rain
10:41 PM 57.2 °F 57.2 °F 100% 29.96 in 1.2 mi WNW 5.8 mph - N/A Rain Heavy Rain
10:44 PM 57.2 °F 57.2 °F 100% 29.96 in 1.5 mi Calm Calm - N/A Rain Heavy Rain
10:47 PM 57.2 °F 57.2 °F 100% 29.96 in 1.5 mi Calm Calm - N/A Rain Heavy Rain
10:49 PM 57.2 °F 57.2 °F 100% 29.97 in 1.5 mi Variable 6.9 mph - N/A Rain Heavy Rain
10:50 PM 57.2 °F 57.2 °F 100% 29.96 in 1.2 mi SW 6.9 mph - N/A Rain Heavy Rain
10:52 PM 57.2 °F 57.2 °F 100% 29.96 in 1.0 mi Variable 3.5 mph - N/A Rain Heavy Rain
10:53 PM 57.2 °F 57.2 °F 100% 29.96 in 1.0 mi West 3.5 mph - N/A Rain Heavy Rain
10:55 PM 57.0 °F 56.8 °F 99% 29.96 in 1.0 mi West 5.8 mph - 0.53 in Rain Heavy Rain
10:59 PM 57.2 °F 57.2 °F 100% 29.96 in 1.0 mi Calm Calm - N/A Rain Heavy Rain
11:01 PM 57.2 °F 57.2 °F 100% 29.96 in 1.2 mi Calm Calm - N/A Rain Heavy Rain
11:04 PM 57.2 °F 57.2 °F 100% 29.96 in 2.0 mi Calm Calm - N/A Rain Light Rain
11:06 PM 57.2 °F 57.2 °F 100% 29.96 in 2.5 mi Calm Calm - N/A Rain Light Rain
11:07 PM 57.2 °F 57.2 °F 100% 29.96 in 3.0 mi Calm Calm - N/A Rain Light Rain
11:15 PM 57.2 °F 57.2 °F 100% 29.96 in 2.5 mi Calm Calm - N/A Rain Rain
11:16 PM 57.2 °F 57.2 °F 100% 29.96 in 2.5 mi Calm Calm - N/A Rain Rain
11:20 PM 57.2 °F 57.2 °F 100% 29.96 in 2.5 mi Calm Calm - N/A Rain Rain
11:33 PM 57.2 °F 57.2 °F 100% 29.95 in 2.0 mi Calm Calm - N/A Rain Light Rain
11:36 PM 57.2 °F 57.2 °F 100% 29.94 in 3.0 mi Calm Calm - N/A Rain Light Rain
11:45 PM 57.2 °F 57.2 °F 100% 29.94 in 7.0 mi Calm Calm - N/A Rain Light Rain
11:48 PM 57.2 °F 57.2 °F 100% 29.94 in 9.0 mi Calm Calm - N/A   Overcast
11:55 PM 57.2 °F 56.8 °F 99% 29.94 in 10.0 mi Calm Calm - 0.16 in   Overcast
11:57 PM 57.2 °F 57.2 °F 100% 29.94 in 10.0 mi Calm Calm - N/A   Overcast